Overview Statistics Trail Chart Weather Telemetry Raw packets
 

This is the latest recevied weather packets stored in our database for station/object N0OQA. If no packets are shown the sender has not sent any weather packets the latest 10 day(s).

<< 10 11 12 13 14 15 16 >>
Time Temp. Humidity Pressure Rain* Wind** Luminosity Snow
1788531135 21.11° C 98% 1014 hPa 0 mm - - -
1788529934 21.11° C 98% 1013.6 hPa 0 mm - - -
1788526931 20° C 98% 1013.6 hPa 0 mm - - -
1788523312 19.44° C 98% 1013 hPa 0 mm - - -
1788523012 20° C 98% 1012.9 hPa 0 mm - - -
1788522408 20° C 98% 1012.9 hPa 0 mm - - -
1788522107 19.44° C 98% 1012.9 hPa 0 mm - - -
1788521807 20° C 98% 1012.9 hPa 0 mm - - -
1788521507 19.44° C 97% 1012.9 hPa 0 mm - - -
1788521207 19.44° C 97% 1012.8 hPa 0 mm - - -
1788520906 20° C 97% 1012.7 hPa 0 mm - - -
1788520606 20° C 97% 1012.6 hPa 0 mm - - -
1788520004 20° C 97% 1012.6 hPa 0 mm - - -
1788519408 20° C 97% 1012.5 hPa 0 mm - - -
1788519104 20° C 98% 1012.6 hPa 0 mm - - -
1788518503 20° C 98% 1012.5 hPa 0 mm - - -
1788517602 20° C 98% 1012.4 hPa 0 mm - - -
1788517001 20° C 98% 1012.5 hPa 0 mm - - -
1788516401 20° C 98% 1012.6 hPa 0 mm - - -
1788515799 20.56° C 98% 1012.5 hPa 0 mm - - -
1788515199 20.56° C 98% 1012.5 hPa 0 mm - - -
1788514898 21.11° C 98% 1012.3 hPa 0 mm - - -
1788514298 21.11° C 98% 1012.2 hPa 0 mm - - -
1788513998 21.67° C 98% 1012.4 hPa 0 mm - - -
1788513697 21.67° C 98% 1012.3 hPa 0 mm - - -

* Rain since midnight (hover to see other rain measurements)
** Current wind speed in m/s (hover to see current wind gust speed)